Time,TemperatureF,DewpointF,PressureIn,WindDirection,WindDirectionDegrees,WindSpeedMPH,WindSpeedGustMPH,Humidity,HourlyPrecipIn,Conditions,Clouds,dailyrainin,SoftwareType,DateUTC
2013-02-17 00:03:00,24.4,24.4,29.67,West,263,3.0,3.0,100,0.00,,,0.00,Wunderground v.1.13,2013-02-17 05:03:00,
2013-02-17 00:12:00,24.4,24.4,29.68,SW,227,2.0,2.0,100,0.00,,,0.00,Wunderground v.1.13,2013-02-17 05:12:00,
2013-02-17 00:22:00,24.2,24.2,29.68,SSE,154,2.0,2.0,100,0.00,,,0.00,Wunderground v.1.13,2013-02-17 05:22:00,
2013-02-17 00:27:00,24.2,24.2,29.68,SE,141,2.0,5.0,100,0.00,,,0.00,Wunderground v.1.13,2013-02-17 05:27:00,
2013-02-17 00:32:00,24.2,24.2,29.68,ESE,104,2.0,2.0,100,0.00,,,0.00,Wunderground v.1.13,2013-02-17 05:32:00,
2013-02-17 00:37:00,24.1,24.1,29.66,SSE,154,3.0,3.0,100,0.00,,,0.00,Wunderground v.1.13,2013-02-17 05:37:00,
2013-02-17 00:42:00,23.9,23.9,29.66,East,97,4.0,4.0,100,0.00,,,0.00,Wunderground v.1.13,2013-02-17 05:42:00,
2013-02-17 00:47:00,23.9,23.9,29.66,SSW,200,3.0,3.0,100,0.00,,,0.00,Wunderground v.1.13,2013-02-17 05:47:00,
2013-02-17 00:52:00,23.8,23.8,29.64,ESE,103,3.0,4.0,100,0.00,,,0.00,Wunderground v.1.13,2013-02-17 05:52:00,
2013-02-17 01:02:00,23.6,23.6,29.64,SSE,150,3.0,3.0,100,0.00,,,0.00,Wunderground v.1.13,2013-02-17 06:02:00,
2013-02-17 01:12:00,23.5,23.5,29.64,SE,141,4.0,4.0,100,0.00,,,0.00,Wunderground v.1.13,2013-02-17 06:12:00,
2013-02-17 01:17:00,23.5,23.5,29.64,ESE,107,4.0,4.0,100,0.00,,,0.00,Wunderground v.1.13,2013-02-17 06:17:00,
2013-02-17 01:22:00,23.3,23.3,29.64,SE,134,4.0,4.0,100,0.00,,,0.00,Wunderground v.1.13,2013-02-17 06:22:00,
2013-02-17 01:27:00,23.3,23.3,29.64,SE,141,5.0,5.0,100,0.00,,,0.00,Wunderground v.1.13,2013-02-17 06:27:00,
2013-02-17 01:32:00,23.3,23.3,29.64,ESE,104,4.0,6.0,100,0.00,,,0.00,Wunderground v.1.13,2013-02-17 06:32:00,
2013-02-17 01:37:00,23.2,23.2,29.64,SE,137,3.0,3.0,100,0.00,,,0.00,Wunderground v.1.13,2013-02-17 06:37:00,
2013-02-17 01:42:00,23.2,23.2,29.64,WNW,298,3.0,3.0,100,0.00,,,0.00,Wunderground v.1.13,2013-02-17 06:42:00,
2013-02-17 01:47:00,23.2,23.2,29.64,SE,130,2.0,4.0,100,0.00,,,0.00,Wunderground v.1.13,2013-02-17 06:47:00,
2013-02-17 01:52:00,23.2,23.2,29.65,SE,136,3.0,4.0,100,0.00,,,0.00,Wunderground v.1.13,2013-02-17 06:52:00,
2013-02-17 01:57:00,23.2,23.2,29.65,ESE,109,3.0,6.0,100,0.00,,,0.00,Wunderground v.1.13,2013-02-17 06:57:00,
2013-02-17 02:03:00,23.0,23.0,29.65,SE,133,3.0,3.0,100,0.00,,,0.00,Wunderground v.1.13,2013-02-17 07:03:00,
2013-02-17 02:12:00,23.0,23.0,29.63,South,169,4.0,5.0,100,0.00,,,0.00,Wunderground v.1.13,2013-02-17 07:12:00,
2013-02-17 02:17:00,22.9,22.9,29.63,SE,133,5.0,5.0,100,0.00,,,0.00,Wunderground v.1.13,2013-02-17 07:17:00,
2013-02-17 02:22:00,22.9,22.9,29.62,ESE,121,6.0,12.0,100,0.00,,,0.00,Wunderground v.1.13,2013-02-17 07:22:00,
2013-02-17 02:27:00,22.7,22.7,29.62,ESE,113,5.0,5.0,100,0.00,,,0.00,Wunderground v.1.13,2013-02-17 07:27:00,
2013-02-17 02:32:00,22.7,22.7,29.62,SE,130,4.0,4.0,100,0.00,,,0.00,Wunderground v.1.13,2013-02-17 07:32:00,
2013-02-17 02:37:00,22.5,22.5,29.62,SSE,148,6.0,6.0,100,0.00,,,0.00,Wunderground v.1.13,2013-02-17 07:37:00,
2013-02-17 02:42:00,22.4,22.4,29.62,South,178,7.0,7.0,100,0.00,,,0.00,Wunderground v.1.13,2013-02-17 07:42:00,
2013-02-17 02:47:00,22.2,22.2,29.62,East,97,6.0,6.0,100,0.00,,,0.00,Wunderground v.1.13,2013-02-17 07:47:00,
2013-02-17 02:52:00,22.2,22.2,29.60,SSE,152,6.0,6.0,100,0.00,,,0.00,Wunderground v.1.13,2013-02-17 07:52:00,
2013-02-17 02:57:00,22.1,22.1,29.60,ESE,116,4.0,8.0,100,0.00,,,0.00,Wunderground v.1.13,2013-02-17 07:57:00,
2013-02-17 03:03:00,22.1,22.1,29.60,East,79,4.0,10.0,100,0.00,,,0.00,Wunderground v.1.13,2013-02-17 08:03:00,
2013-02-17 03:07:00,21.9,21.9,29.60,South,174,5.0,5.0,100,0.00,,,0.00,Wunderground v.1.13,2013-02-17 08:07:00,
2013-02-17 03:12:00,21.9,21.9,29.60,SE,128,4.0,5.0,100,0.00,,,0.00,Wunderground v.1.13,2013-02-17 08:12:00,
2013-02-17 03:17:00,21.8,21.8,29.60,ESE,119,4.0,10.0,100,0.00,,,0.00,Wunderground v.1.13,2013-02-17 08:17:00,
2013-02-17 03:22:00,21.8,21.8,29.60,SE,124,6.0,10.0,100,0.00,,,0.00,Wunderground v.1.13,2013-02-17 08:22:00,
2013-02-17 03:27:00,21.6,21.6,29.60,South,191,7.0,7.0,100,0.00,,,0.00,Wunderground v.1.13,2013-02-17 08:27:00,
2013-02-17 03:32:00,21.4,21.4,29.60,South,184,7.0,7.0,100,0.00,,,0.00,Wunderground v.1.13,2013-02-17 08:32:00,
2013-02-17 03:37:00,21.4,21.4,29.59,SSE,150,6.0,6.0,100,0.00,,,0.00,Wunderground v.1.13,2013-02-17 08:37:00,
2013-02-17 03:42:00,21.3,21.3,29.59,SE,138,4.0,4.0,100,0.00,,,0.00,Wunderground v.1.13,2013-02-17 08:42:00,
2013-02-17 03:47:00,21.3,21.3,29.59,SE,145,4.0,9.0,100,0.00,,,0.00,Wunderground v.1.13,2013-02-17 08:47:00,
2013-02-17 03:52:00,21.1,21.1,29.57,ESE,116,6.0,8.0,100,0.00,,,0.00,Wunderground v.1.13,2013-02-17 08:52:00,
2013-02-17 03:57:00,21.0,21.0,29.57,SE,131,7.0,7.0,100,0.00,,,0.00,Wunderground v.1.13,2013-02-17 08:57:00,
2013-02-17 04:03:00,20.8,20.8,29.57,SE,127,5.0,8.0,100,0.00,,,0.00,Wunderground v.1.13,2013-02-17 09:03:00,
2013-02-17 04:07:00,20.8,20.8,29.57,SSE,154,5.0,7.0,100,0.00,,,0.00,Wunderground v.1.13,2013-02-17 09:07:00,
2013-02-17 04:12:00,20.8,20.8,29.57,SSE,165,5.0,7.0,100,0.00,,,0.00,Wunderground v.1.13,2013-02-17 09:12:00,
2013-02-17 04:17:00,20.6,20.6,29.57,ESE,109,7.0,7.0,100,0.00,,,0.00,Wunderground v.1.13,2013-02-17 09:17:00,
2013-02-17 04:27:00,20.5,20.5,29.58,SE,141,5.0,6.0,100,0.00,,,0.00,Wunderground v.1.13,2013-02-17 09:27:00,
2013-02-17 04:32:00,20.3,20.3,29.58,South,182,4.0,4.0,100,0.00,,,0.00,Wunderground v.1.13,2013-02-17 09:32:00,
2013-02-17 04:37:00,20.3,20.3,29.57,ESE,123,5.0,6.0,100,0.00,,,0.00,Wunderground v.1.13,2013-02-17 09:37:00,
2013-02-17 04:42:00,20.2,20.2,29.57,SSE,147,4.0,4.0,100,0.00,,,0.00,Wunderground v.1.13,2013-02-17 09:42:00,
2013-02-17 04:47:00,20.2,20.2,29.57,East,96,4.0,4.0,100,0.00,,,0.00,Wunderground v.1.13,2013-02-17 09:47:00,
2013-02-17 04:52:00,20.0,20.0,29.57,ESE,112,5.0,5.0,100,0.00,,,0.00,Wunderground v.1.13,2013-02-17 09:52:00,
2013-02-17 04:57:00,19.9,19.9,29.57,SE,124,5.0,5.0,100,0.00,,,0.00,Wunderground v.1.13,2013-02-17 09:57:00,
2013-02-17 05:03:00,19.9,19.9,29.57,ESE,106,5.0,10.0,100,0.00,,,0.00,Wunderground v.1.13,2013-02-17 10:03:00,
2013-02-17 05:07:00,19.5,19.5,29.56,SE,128,7.0,15.0,100,0.00,,,0.00,Wunderground v.1.13,2013-02-17 10:07:00,
2013-02-17 05:12:00,19.5,19.5,29.56,SSE,147,8.0,8.0,100,0.00,,,0.00,Wunderground v.1.13,2013-02-17 10:12:00,
2013-02-17 05:22:00,19.4,19.4,29.57,South,188,4.0,4.0,100,0.00,,,0.00,Wunderground v.1.13,2013-02-17 10:22:00,
2013-02-17 05:27:00,19.4,19.4,29.57,SE,137,5.0,5.0,100,0.00,,,0.00,Wunderground v.1.13,2013-02-17 10:27:00,
2013-02-17 05:32:00,19.4,19.4,29.57,SE,134,6.0,6.0,100,0.00,,,0.00,Wunderground v.1.13,2013-02-17 10:32:00,
2013-02-17 05:37:00,19.2,19.2,29.56,ESE,107,5.0,5.0,100,0.00,,,0.00,Wunderground v.1.13,2013-02-17 10:37:00,
2013-02-17 05:42:00,19.1,19.1,29.56,SSE,148,4.0,7.0,100,0.00,,,0.00,Wunderground v.1.13,2013-02-17 10:42:00,
2013-02-17 05:47:00,18.9,18.9,29.56,SSE,155,5.0,5.0,100,0.00,,,0.00,Wunderground v.1.13,2013-02-17 10:47:00,
2013-02-17 05:52:00,18.8,18.8,29.55,ESE,106,4.0,4.0,100,0.00,,,0.00,Wunderground v.1.13,2013-02-17 10:52:00,
2013-02-17 06:03:00,18.6,18.6,29.55,SSE,148,5.0,7.0,100,0.00,,,0.00,Wunderground v.1.13,2013-02-17 11:03:00,
2013-02-17 06:07:00,18.3,-99.9,29.53,SE,136,7.0,7.0,0,0.00,,,0.00,Wunderground v.1.13,2013-02-17 11:07:00,
2013-02-17 06:12:00,18.1,-99.9,29.53,ESE,116,5.0,7.0,0,0.00,,,0.00,Wunderground v.1.13,2013-02-17 11:12:00,
2013-02-17 06:22:00,17.8,-99.9,29.54,SE,126,5.0,5.0,0,0.00,,,0.00,Wunderground v.1.13,2013-02-17 11:22:00,
2013-02-17 06:27:00,17.7,-99.9,29.54,East,90,5.0,5.0,0,0.00,,,0.00,Wunderground v.1.13,2013-02-17 11:27:00,
2013-02-17 06:32:00,17.5,-99.9,29.54,SE,137,4.0,4.0,0,0.00,,,0.00,Wunderground v.1.13,2013-02-17 11:32:00,
2013-02-17 06:37:00,17.5,-99.9,29.52,SE,127,5.0,7.0,0,0.00,,,0.00,Wunderground v.1.13,2013-02-17 11:37:00,
2013-02-17 06:42:00,17.3,-99.9,29.52,ESE,121,6.0,8.0,0,0.00,,,0.00,Wunderground v.1.13,2013-02-17 11:42:00,
2013-02-17 06:47:00,17.3,-99.9,29.52,SE,136,5.0,5.0,0,0.00,,,0.00,Wunderground v.1.13,2013-02-17 11:47:00,
2013-02-17 06:52:00,17.3,-99.9,29.50,SE,137,5.0,11.0,0,0.00,,,0.00,Wunderground v.1.13,2013-02-17 11:52:00,
2013-02-17 06:57:00,17.5,-99.9,29.50,SSE,151,5.0,5.0,0,0.00,,,0.00,Wunderground v.1.13,2013-02-17 11:57:00,
2013-02-17 07:02:00,17.5,-99.9,29.50,SE,131,4.0,7.0,0,0.00,,,0.00,Wunderground v.1.13,2013-02-17 12:02:00,
2013-02-17 07:07:00,17.5,-99.9,29.49,ESE,114,5.0,6.0,0,0.00,,,0.00,Wunderground v.1.13,2013-02-17 12:07:00,
2013-02-17 07:12:00,17.7,-99.9,29.49,East,99,5.0,14.0,0,0.00,,,0.00,Wunderground v.1.13,2013-02-17 12:12:00,
2013-02-17 07:17:00,17.5,-99.9,29.49,ESE,114,6.0,6.0,0,0.00,,,0.00,Wunderground v.1.13,2013-02-17 12:17:00,
2013-02-17 07:22:00,17.5,-99.9,29.49,SE,131,7.0,10.0,0,0.00,,,0.00,Wunderground v.1.13,2013-02-17 12:22:00,
2013-02-17 07:27:00,17.5,-99.9,29.49,ESE,114,8.0,10.0,0,0.00,,,0.00,Wunderground v.1.13,2013-02-17 12:27:00,
2013-02-17 07:32:00,17.3,-99.9,29.49,ESE,123,7.0,12.0,0,0.00,,,0.00,Wunderground v.1.13,2013-02-17 12:32:00,
2013-02-17 07:37:00,17.5,-99.9,29.49,WSW,248,6.0,8.0,0,0.00,,,0.00,Wunderground v.1.13,2013-02-17 12:37:00,
2013-02-17 07:42:00,17.5,-99.9,29.49,SSE,155,6.0,6.0,0,0.00,,,0.00,Wunderground v.1.13,2013-02-17 12:42:00,
2013-02-17 07:47:00,17.5,-99.9,29.49,SE,124,5.0,18.0,0,0.00,,,0.00,Wunderground v.1.13,2013-02-17 12:47:00,
2013-02-17 07:52:00,17.5,-99.9,29.48,ESE,114,5.0,11.0,0,0.00,,,0.00,Wunderground v.1.13,2013-02-17 12:52:00,
2013-02-17 07:57:00,17.5,-99.9,29.48,SSE,154,8.0,8.0,0,0.00,,,0.00,Wunderground v.1.13,2013-02-17 12:57:00,
2013-02-17 08:02:00,17.5,-99.9,29.48,SE,143,8.0,12.0,0,0.00,,,0.00,Wunderground v.1.13,2013-02-17 13:02:00,
2013-02-17 08:07:00,17.7,-99.9,29.47,SSE,151,6.0,7.0,0,0.00,,,0.00,Wunderground v.1.13,2013-02-17 13:07:00,
2013-02-17 08:12:00,17.5,-99.9,29.47,SE,126,6.0,8.0,0,0.00,,,0.00,Wunderground v.1.13,2013-02-17 13:12:00,
2013-02-17 08:22:00,17.3,-99.9,29.46,West,280,6.0,6.0,0,0.00,,,0.00,Wunderground v.1.13,2013-02-17 13:22:00,
2013-02-17 08:27:00,17.3,-99.9,29.46,ESE,121,7.0,7.0,0,0.00,,,0.00,Wunderground v.1.13,2013-02-17 13:27:00,
2013-02-17 08:32:00,17.3,-99.9,29.46,SSE,151,5.0,7.0,0,0.00,,,0.00,Wunderground v.1.13,2013-02-17 13:32:00,
2013-02-17 08:37:00,17.2,-99.9,29.45,SE,128,5.0,5.0,0,0.00,,,0.00,Wunderground v.1.13,2013-02-17 13:37:00,
2013-02-17 08:42:00,17.0,-99.9,29.45,South,169,7.0,7.0,0,0.00,,,0.00,Wunderground v.1.13,2013-02-17 13:42:00,
2013-02-17 08:47:00,17.0,-99.9,29.45,East,100,8.0,10.0,0,0.00,,,0.00,Wunderground v.1.13,2013-02-17 13:47:00,
2013-02-17 08:52:00,17.0,-99.9,29.44,SSE,148,8.0,8.0,0,0.00,,,0.00,Wunderground v.1.13,2013-02-17 13:52:00,
2013-02-17 08:57:00,17.0,-99.9,29.44,SE,127,7.0,8.0,0,0.00,,,0.00,Wunderground v.1.13,2013-02-17 13:57:00,
2013-02-17 09:03:00,17.0,-99.9,29.44,ESE,102,7.0,7.0,0,0.00,,,0.00,Wunderground v.1.13,2013-02-17 14:03:00,
2013-02-17 09:07:00,17.0,-99.9,29.44,West,268,8.0,8.0,0,0.00,,,0.00,Wunderground v.1.13,2013-02-17 14:07:00,
2013-02-17 09:12:00,17.2,-99.9,29.44,ESE,106,7.0,12.0,0,0.00,,,0.00,Wunderground v.1.13,2013-02-17 14:12:00,
2013-02-17 09:17:00,17.0,-99.9,29.44,ESE,107,7.0,12.0,0,0.00,,,0.00,Wunderground v.1.13,2013-02-17 14:17:00,
2013-02-17 09:22:00,17.2,-99.9,29.43,ENE,61,7.0,7.0,0,0.00,,,0.00,Wunderground v.1.13,2013-02-17 14:22:00,
2013-02-17 09:27:00,17.3,-99.9,29.43,East,99,6.0,6.0,0,0.00,,,0.00,Wunderground v.1.13,2013-02-17 14:27:00,
2013-02-17 09:32:00,17.3,-99.9,29.43,ESE,107,7.0,7.0,0,0.00,,,0.00,Wunderground v.1.13,2013-02-17 14:32:00,
2013-02-17 09:37:00,17.3,-99.9,29.42,SE,141,9.0,10.0,0,0.00,,,0.00,Wunderground v.1.13,2013-02-17 14:37:00,
2013-02-17 09:42:00,17.3,-99.9,29.42,ESE,112,7.0,15.0,0,0.00,,,0.00,Wunderground v.1.13,2013-02-17 14:42:00,
2013-02-17 09:47:00,17.5,-99.9,29.42,SE,143,6.0,6.0,0,0.00,,,0.00,Wunderground v.1.13,2013-02-17 14:47:00,
2013-02-17 09:52:00,17.5,-99.9,29.41,SE,138,6.0,7.0,0,0.00,,,0.00,Wunderground v.1.13,2013-02-17 14:52:00,
2013-02-17 09:57:00,17.7,-99.9,29.41,ESE,119,7.0,9.0,0,0.00,,,0.00,Wunderground v.1.13,2013-02-17 14:57:00,
2013-02-17 10:03:00,17.7,-99.9,29.41,SE,137,8.0,8.0,0,0.00,,,0.00,Wunderground v.1.13,2013-02-17 15:03:00,
2013-02-17 10:12:00,17.8,-99.9,29.41,South,172,7.0,7.0,0,0.00,,,0.00,Wunderground v.1.13,2013-02-17 15:12:00,
2013-02-17 10:17:00,17.8,-99.9,29.41,SSE,164,7.0,7.0,0,0.00,,,0.00,Wunderground v.1.13,2013-02-17 15:17:00,
2013-02-17 10:27:00,17.8,-99.9,29.41,SE,138,9.0,9.0,0,0.00,,,0.00,Wunderground v.1.13,2013-02-17 15:27:00,
2013-02-17 10:32:00,17.8,-99.9,29.41,SSE,162,10.0,10.0,0,0.00,,,0.00,Wunderground v.1.13,2013-02-17 15:32:00,
2013-02-17 10:37:00,18.0,-99.9,29.41,ESE,116,7.0,11.0,0,0.00,,,0.00,Wunderground v.1.13,2013-02-17 15:37:00,
2013-02-17 10:42:00,18.1,-99.9,29.41,ESE,110,5.0,5.0,0,0.00,,,0.00,Wunderground v.1.13,2013-02-17 15:42:00,
2013-02-17 10:47:00,18.3,-99.9,29.41,ESE,103,5.0,5.0,0,0.00,,,0.00,Wunderground v.1.13,2013-02-17 15:47:00,
2013-02-17 10:57:00,18.0,18.0,29.40,SE,133,10.0,13.0,100,0.00,,,0.00,Wunderground v.1.13,2013-02-17 15:57:00,
2013-02-17 11:03:00,18.1,18.1,29.40,SE,130,11.0,11.0,100,0.00,,,0.00,Wunderground v.1.13,2013-02-17 16:03:00,
2013-02-17 11:07:00,18.3,18.3,29.39,ESE,109,9.0,21.0,100,0.00,,,0.00,Wunderground v.1.13,2013-02-17 16:07:00,
2013-02-17 11:12:00,18.4,18.4,29.39,ESE,112,8.0,8.0,100,0.00,,,0.00,Wunderground v.1.13,2013-02-17 16:12:00,
2013-02-17 11:17:00,18.8,18.8,29.39,SE,128,7.0,7.0,100,0.00,,,0.00,Wunderground v.1.13,2013-02-17 16:17:00,
2013-02-17 11:22:00,18.8,18.8,29.39,South,186,8.0,17.0,100,0.00,,,0.00,Wunderground v.1.13,2013-02-17 16:22:00,
2013-02-17 11:27:00,18.8,18.8,29.39,SSE,150,10.0,10.0,100,0.00,,,0.00,Wunderground v.1.13,2013-02-17 16:27:00,
2013-02-17 11:32:00,19.1,19.1,29.39,SE,138,8.0,12.0,100,0.00,,,0.00,Wunderground v.1.13,2013-02-17 16:32:00,
2013-02-17 11:37:00,19.1,19.1,29.38,East,88,9.0,9.0,100,0.00,,,0.00,Wunderground v.1.13,2013-02-17 16:37:00,
2013-02-17 11:42:00,19.1,19.1,29.38,SE,143,9.0,9.0,100,0.00,,,0.00,Wunderground v.1.13,2013-02-17 16:42:00,
2013-02-17 11:47:00,19.4,19.4,29.38,SE,145,8.0,8.0,100,0.00,,,0.00,Wunderground v.1.13,2013-02-17 16:47:00,
2013-02-17 11:52:00,19.4,19.4,29.38,East,99,8.0,8.0,100,0.00,,,0.00,Wunderground v.1.13,2013-02-17 16:52:00,
2013-02-17 11:57:00,19.5,19.5,29.38,ESE,117,7.0,7.0,100,0.00,,,0.00,Wunderground v.1.13,2013-02-17 16:57:00,
2013-02-17 12:02:00,19.4,19.4,29.38,ESE,114,9.0,9.0,100,0.00,,,0.00,Wunderground v.1.13,2013-02-17 17:02:00,
2013-02-17 12:07:00,19.2,19.2,29.38,West,263,10.0,10.0,100,0.00,,,0.00,Wunderground v.1.13,2013-02-17 17:07:00,
2013-02-17 12:12:00,19.1,19.1,29.38,SSE,151,10.0,12.0,100,0.00,,,0.00,Wunderground v.1.13,2013-02-17 17:12:00,
2013-02-17 12:17:00,19.1,19.1,29.38,SSE,155,9.0,10.0,100,0.00,,,0.00,Wunderground v.1.13,2013-02-17 17:17:00,
2013-02-17 12:27:00,19.1,19.1,29.38,SE,127,9.0,11.0,100,0.00,,,0.00,Wunderground v.1.13,2013-02-17 17:27:00,
2013-02-17 12:32:00,19.2,19.2,29.38,SSW,199,11.0,11.0,100,0.00,,,0.00,Wunderground v.1.13,2013-02-17 17:32:00,
2013-02-17 12:37:00,19.2,19.2,29.38,SE,130,11.0,16.0,100,0.00,,,0.00,Wunderground v.1.13,2013-02-17 17:37:00,
2013-02-17 12:42:00,19.2,19.2,29.38,ESE,110,10.0,11.0,100,0.00,,,0.00,Wunderground v.1.13,2013-02-17 17:42:00,
2013-02-17 12:47:00,19.4,19.4,29.38,SE,145,9.0,11.0,100,0.00,,,0.00,Wunderground v.1.13,2013-02-17 17:47:00,
2013-02-17 12:52:00,19.4,19.4,29.38,ESE,113,9.0,9.0,100,0.00,,,0.00,Wunderground v.1.13,2013-02-17 17:52:00,
2013-02-17 12:57:00,19.4,19.4,29.38,SE,137,9.0,25.0,100,0.00,,,0.00,Wunderground v.1.13,2013-02-17 17:57:00,
2013-02-17 13:03:00,19.1,19.1,29.38,ESE,120,10.0,12.0,100,0.00,,,0.00,Wunderground v.1.13,2013-02-17 18:03:00,
2013-02-17 13:12:00,19.1,19.1,29.38,ESE,109,9.0,9.0,100,0.00,,,0.00,Wunderground v.1.13,2013-02-17 18:12:00,
2013-02-17 13:17:00,18.9,18.9,29.38,SE,131,11.0,14.0,100,0.00,,,0.00,Wunderground v.1.13,2013-02-17 18:17:00,
2013-02-17 13:27:00,18.8,18.8,29.38,ESE,121,11.0,12.0,100,0.00,,,0.00,Wunderground v.1.13,2013-02-17 18:27:00,
2013-02-17 13:32:00,18.9,18.9,29.38,ESE,109,11.0,11.0,100,0.00,,,0.00,Wunderground v.1.13,2013-02-17 18:32:00,
2013-02-17 13:37:00,19.1,19.1,29.38,SE,145,10.0,10.0,100,0.00,,,0.00,Wunderground v.1.13,2013-02-17 18:37:00,
2013-02-17 13:42:00,19.2,19.2,29.38,ESE,121,9.0,15.0,100,0.00,,,0.00,Wunderground v.1.13,2013-02-17 18:42:00,
2013-02-17 13:47:00,19.2,19.2,29.38,ENE,71,10.0,10.0,100,0.00,,,0.00,Wunderground v.1.13,2013-02-17 18:47:00,
2013-02-17 13:57:00,19.1,19.1,29.38,ESE,121,13.0,16.0,100,0.00,,,0.00,Wunderground v.1.13,2013-02-17 18:57:00,
2013-02-17 14:02:00,18.8,18.8,29.38,SE,143,14.0,20.0,100,0.00,,,0.00,Wunderground v.1.13,2013-02-17 19:02:00,
2013-02-17 14:07:00,18.9,18.9,29.39,NE,52,12.0,12.0,100,0.00,,,0.00,Wunderground v.1.13,2013-02-17 19:07:00,
2013-02-17 14:12:00,18.8,18.8,29.39,SSE,162,11.0,11.0,100,0.00,,,0.00,Wunderground v.1.13,2013-02-17 19:12:00,
2013-02-17 14:17:00,18.9,18.9,29.39,SSE,150,11.0,12.0,100,0.00,,,0.00,Wunderground v.1.13,2013-02-17 19:17:00,
2013-02-17 14:22:00,18.9,18.9,29.39,SE,130,11.0,16.0,100,0.00,,,0.00,Wunderground v.1.13,2013-02-17 19:22:00,
2013-02-17 14:27:00,19.1,19.1,29.39,SSE,152,10.0,11.0,100,0.00,,,0.00,Wunderground v.1.13,2013-02-17 19:27:00,
2013-02-17 14:32:00,19.1,19.1,29.39,SSE,151,9.0,9.0,100,0.00,,,0.00,Wunderground v.1.13,2013-02-17 19:32:00,
2013-02-17 14:37:00,18.8,18.8,29.39,SSE,154,12.0,12.0,100,0.00,,,0.00,Wunderground v.1.13,2013-02-17 19:37:00,
2013-02-17 14:42:00,18.9,18.9,29.39,ESE,113,12.0,12.0,100,0.00,,,0.00,Wunderground v.1.13,2013-02-17 19:42:00,
2013-02-17 14:47:00,18.8,18.8,29.39,South,184,10.0,10.0,100,0.00,,,0.00,Wunderground v.1.13,2013-02-17 19:47:00,
2013-02-17 14:52:00,18.9,18.9,29.39,SSE,151,9.0,13.0,100,0.00,,,0.00,Wunderground v.1.13,2013-02-17 19:52:00,
2013-02-17 14:57:00,18.9,18.9,29.39,ESE,110,9.0,9.0,100,0.00,,,0.00,Wunderground v.1.13,2013-02-17 19:57:00,
2013-02-17 15:02:00,18.9,18.9,29.39,SE,138,11.0,13.0,100,0.00,,,0.00,Wunderground v.1.13,2013-02-17 20:02:00,
2013-02-17 15:07:00,19.1,19.1,29.39,SSE,148,10.0,17.0,100,0.00,,,0.00,Wunderground v.1.13,2013-02-17 20:07:00,
2013-02-17 15:12:00,19.1,19.1,29.39,ESE,120,9.0,18.0,100,0.00,,,0.00,Wunderground v.1.13,2013-02-17 20:12:00,
2013-02-17 15:17:00,19.1,19.1,29.39,NE,45,11.0,11.0,100,0.00,,,0.00,Wunderground v.1.13,2013-02-17 20:17:00,
2013-02-17 15:22:00,19.1,19.1,29.40,SE,145,12.0,12.0,100,0.00,,,0.00,Wunderground v.1.13,2013-02-17 20:22:00,
2013-02-17 15:27:00,19.1,19.1,29.40,ESE,106,12.0,12.0,100,0.00,,,0.00,Wunderground v.1.13,2013-02-17 20:27:00,
2013-02-17 15:32:00,19.1,19.1,29.40,ENE,64,11.0,12.0,100,0.00,,,0.00,Wunderground v.1.13,2013-02-17 20:32:00,
2013-02-17 15:37:00,19.1,19.1,29.40,SSE,152,10.0,13.0,100,0.00,,,0.00,Wunderground v.1.13,2013-02-17 20:37:00,
2013-02-17 15:42:00,19.1,19.1,29.40,SE,127,10.0,11.0,100,0.00,,,0.00,Wunderground v.1.13,2013-02-17 20:42:00,
2013-02-17 15:47:00,19.1,19.1,29.40,SE,138,11.0,21.0,100,0.00,,,0.00,Wunderground v.1.13,2013-02-17 20:47:00,
2013-02-17 15:52:00,19.1,19.1,29.41,East,97,11.0,11.0,100,0.00,,,0.00,Wunderground v.1.13,2013-02-17 20:52:00,
2013-02-17 15:57:00,19.1,19.1,29.41,East,93,9.0,10.0,100,0.00,,,0.00,Wunderground v.1.13,2013-02-17 20:57:00,
2013-02-17 16:03:00,19.1,19.1,29.41,South,185,10.0,10.0,100,0.00,,,0.00,Wunderground v.1.13,2013-02-17 21:03:00,
2013-02-17 16:12:00,19.1,19.1,29.41,SSE,167,9.0,11.0,100,0.00,,,0.00,Wunderground v.1.13,2013-02-17 21:12:00,
2013-02-17 16:17:00,19.1,19.1,29.41,SE,127,9.0,9.0,100,0.00,,,0.00,Wunderground v.1.13,2013-02-17 21:17:00,
2013-02-17 16:22:00,19.1,19.1,29.42,SSE,157,9.0,9.0,100,0.00,,,0.00,Wunderground v.1.13,2013-02-17 21:22:00,
2013-02-17 16:32:00,18.9,18.9,29.42,East,100,12.0,12.0,100,0.00,,,0.00,Wunderground v.1.13,2013-02-17 21:32:00,
2013-02-17 16:37:00,19.1,19.1,29.43,SE,138,11.0,11.0,100,0.00,,,0.00,Wunderground v.1.13,2013-02-17 21:37:00,
2013-02-17 16:42:00,19.1,19.1,29.43,East,90,8.0,8.0,100,0.00,,,0.00,Wunderground v.1.13,2013-02-17 21:42:00,
2013-02-17 16:47:00,19.1,19.1,29.43,ESE,103,7.0,7.0,100,0.00,,,0.00,Wunderground v.1.13,2013-02-17 21:47:00,
2013-02-17 16:52:00,18.9,18.9,29.43,SE,134,8.0,8.0,100,0.00,,,0.00,Wunderground v.1.13,2013-02-17 21:52:00,
2013-02-17 16:57:00,18.9,18.9,29.43,ESE,113,8.0,10.0,100,0.00,,,0.00,Wunderground v.1.13,2013-02-17 21:57:00,
2013-02-17 17:03:00,18.8,18.8,29.43,ESE,113,10.0,18.0,100,0.00,,,0.00,Wunderground v.1.13,2013-02-17 22:03:00,
2013-02-17 17:12:00,18.4,18.4,29.44,SE,143,11.0,11.0,100,0.00,,,0.00,Wunderground v.1.13,2013-02-17 22:12:00,
2013-02-17 17:17:00,18.4,18.4,29.44,SE,124,12.0,12.0,100,0.00,,,0.00,Wunderground v.1.13,2013-02-17 22:17:00,
2013-02-17 17:22:00,18.3,18.3,29.46,ESE,107,11.0,18.0,100,0.00,,,0.00,Wunderground v.1.13,2013-02-17 22:22:00,
2013-02-17 17:27:00,18.3,18.3,29.46,SE,140,12.0,12.0,100,0.00,,,0.00,Wunderground v.1.13,2013-02-17 22:27:00,
2013-02-17 17:32:00,18.1,18.1,29.46,SE,145,13.0,16.0,100,0.00,,,0.00,Wunderground v.1.13,2013-02-17 22:32:00,
2013-02-17 17:37:00,18.0,18.0,29.46,ESE,121,12.0,12.0,100,0.00,,,0.00,Wunderground v.1.13,2013-02-17 22:37:00,
2013-02-17 17:42:00,18.0,18.0,29.46,South,172,10.0,10.0,100,0.00,,,0.00,Wunderground v.1.13,2013-02-17 22:42:00,
2013-02-17 17:47:00,17.8,17.8,29.46,SE,145,8.0,8.0,100,0.00,,,0.00,Wunderground v.1.13,2013-02-17 22:47:00,
2013-02-17 17:52:00,17.8,17.8,29.48,ESE,116,8.0,8.0,100,0.00,,,0.00,Wunderground v.1.13,2013-02-17 22:52:00,
2013-02-17 17:57:00,17.7,17.7,29.48,SSW,213,7.0,7.0,100,0.00,,,0.00,Wunderground v.1.13,2013-02-17 22:57:00,
2013-02-17 18:02:00,17.7,17.7,29.48,SE,134,6.0,6.0,100,0.00,,,0.00,Wunderground v.1.13,2013-02-17 23:02:00,
2013-02-17 18:12:00,17.7,17.7,29.49,ESE,113,7.0,7.0,100,0.00,,,0.00,Wunderground v.1.13,2013-02-17 23:12:00,
2013-02-17 18:17:00,17.5,17.5,29.49,SE,126,7.0,10.0,100,0.00,,,0.00,Wunderground v.1.13,2013-02-17 23:17:00,
2013-02-17 18:22:00,17.5,17.5,29.49,ESE,114,7.0,8.0,100,0.00,,,0.00,Wunderground v.1.13,2013-02-17 23:22:00,
2013-02-17 18:27:00,17.5,17.5,29.49,South,185,8.0,8.0,100,0.00,,,0.00,Wunderground v.1.13,2013-02-17 23:27:00,
2013-02-17 18:32:00,17.5,17.5,29.49,SE,126,8.0,12.0,100,0.00,,,0.00,Wunderground v.1.13,2013-02-17 23:32:00,
2013-02-17 18:37:00,17.3,17.3,29.49,SE,133,8.0,11.0,100,0.00,,,0.00,Wunderground v.1.13,2013-02-17 23:37:00,
2013-02-17 18:47:00,17.5,17.5,29.49,SSE,148,7.0,9.0,100,0.00,,,0.00,Wunderground v.1.13,2013-02-17 23:47:00,
2013-02-17 18:52:00,17.3,17.3,29.49,SSE,167,7.0,7.0,100,0.00,,,0.00,Wunderground v.1.13,2013-02-17 23:52:00,
2013-02-17 18:57:00,17.3,17.3,29.49,ENE,64,7.0,7.0,100,0.00,,,0.00,Wunderground v.1.13,2013-02-17 23:57:00,
2013-02-17 19:02:00,17.3,17.3,29.49,ESE,121,7.0,8.0,100,0.00,,,0.00,Wunderground v.1.13,2013-02-18 00:02:00,
2013-02-17 19:07:00,17.5,17.5,29.49,SE,124,7.0,9.0,100,0.00,,,0.00,Wunderground v.1.13,2013-02-18 00:07:00,
2013-02-17 19:12:00,17.5,17.5,29.49,ESE,110,7.0,9.0,100,0.00,,,0.00,Wunderground v.1.13,2013-02-18 00:12:00,
2013-02-17 19:17:00,17.5,17.5,29.49,ESE,119,9.0,9.0,100,0.00,,,0.00,Wunderground v.1.13,2013-02-18 00:17:00,
2013-02-17 19:22:00,17.5,17.5,29.49,ESE,120,9.0,9.0,100,0.00,,,0.00,Wunderground v.1.13,2013-02-18 00:22:00,
2013-02-17 19:27:00,17.5,17.5,29.49,ESE,116,8.0,8.0,100,0.00,,,0.00,Wunderground v.1.13,2013-02-18 00:27:00,
2013-02-17 19:32:00,17.5,17.5,29.49,ESE,107,7.0,7.0,100,0.00,,,0.00,Wunderground v.1.13,2013-02-18 00:32:00,
2013-02-17 19:37:00,17.5,17.5,29.49,ESE,107,6.0,6.0,100,0.00,,,0.00,Wunderground v.1.13,2013-02-18 00:37:00,
2013-02-17 19:42:00,17.3,17.3,29.49,SE,141,6.0,6.0,100,0.00,,,0.00,Wunderground v.1.13,2013-02-18 00:42:00,
2013-02-17 19:47:00,17.3,17.3,29.49,SE,143,7.0,8.0,100,0.00,,,0.00,Wunderground v.1.13,2013-02-18 00:47:00,
2013-02-17 19:52:00,17.3,17.3,29.50,SE,143,7.0,7.0,100,0.00,,,0.00,Wunderground v.1.13,2013-02-18 00:52:00,
2013-02-17 19:57:00,17.2,17.2,29.50,SE,136,8.0,8.0,100,0.00,,,0.00,Wunderground v.1.13,2013-02-18 00:57:00,
2013-02-17 20:03:00,16.9,16.9,29.50,SE,133,10.0,11.0,100,0.00,,,0.00,Wunderground v.1.13,2013-02-18 01:03:00,
2013-02-17 20:07:00,16.7,16.7,29.50,ESE,110,11.0,11.0,100,0.00,,,0.00,Wunderground v.1.13,2013-02-18 01:07:00,
2013-02-17 20:12:00,16.7,16.7,29.50,ESE,110,10.0,10.0,100,0.00,,,0.00,Wunderground v.1.13,2013-02-18 01:12:00,
2013-02-17 20:17:00,16.5,16.5,29.50,ESE,103,10.0,25.0,100,0.00,,,0.00,Wunderground v.1.13,2013-02-18 01:17:00,
2013-02-17 20:22:00,16.5,16.5,29.51,ENE,65,12.0,12.0,100,0.00,,,0.00,Wunderground v.1.13,2013-02-18 01:22:00,
2013-02-17 20:27:00,16.4,16.4,29.51,SSW,199,13.0,13.0,100,0.00,,,0.00,Wunderground v.1.13,2013-02-18 01:27:00,
2013-02-17 20:32:00,16.4,16.4,29.51,SE,140,11.0,12.0,100,0.00,,,0.00,Wunderground v.1.13,2013-02-18 01:32:00,
2013-02-17 20:37:00,16.2,16.2,29.52,SE,134,11.0,18.0,100,0.00,,,0.00,Wunderground v.1.13,2013-02-18 01:37:00,
2013-02-17 20:42:00,16.1,16.1,29.52,SE,137,12.0,12.0,100,0.00,,,0.00,Wunderground v.1.13,2013-02-18 01:42:00,
2013-02-17 20:47:00,15.9,15.9,29.52,SW,223,11.0,11.0,100,0.00,,,0.00,Wunderground v.1.13,2013-02-18 01:47:00,
2013-02-17 20:52:00,15.9,15.9,29.52,ESE,120,10.0,10.0,100,0.00,,,0.00,Wunderground v.1.13,2013-02-18 01:52:00,
2013-02-17 20:57:00,15.9,15.9,29.52,SE,127,9.0,10.0,100,0.00,,,0.00,Wunderground v.1.13,2013-02-18 01:57:00,
2013-02-17 21:03:00,15.7,15.7,29.52,East,82,10.0,10.0,100,0.00,,,0.00,Wunderground v.1.13,2013-02-18 02:03:00,
2013-02-17 21:12:00,15.6,15.6,29.54,ESE,117,10.0,18.0,100,0.00,,,0.00,Wunderground v.1.13,2013-02-18 02:12:00,
2013-02-17 21:17:00,15.4,15.4,29.54,SE,141,11.0,11.0,100,0.00,,,0.00,Wunderground v.1.13,2013-02-18 02:17:00,
2013-02-17 21:22:00,15.2,15.2,29.54,SE,126,11.0,11.0,100,0.00,,,0.00,Wunderground v.1.13,2013-02-18 02:22:00,
2013-02-17 21:27:00,15.2,15.2,29.54,South,172,10.0,10.0,100,0.00,,,0.00,Wunderground v.1.13,2013-02-18 02:27:00,
2013-02-17 21:32:00,15.2,15.2,29.54,NE,54,8.0,8.0,100,0.00,,,0.00,Wunderground v.1.13,2013-02-18 02:32:00,
2013-02-17 21:37:00,15.1,15.1,29.55,ESE,116,6.0,13.0,100,0.00,,,0.00,Wunderground v.1.13,2013-02-18 02:37:00,
2013-02-17 21:42:00,14.9,14.9,29.55,SSE,160,7.0,12.0,100,0.00,,,0.00,Wunderground v.1.13,2013-02-18 02:42:00,
2013-02-17 21:47:00,14.9,14.9,29.55,South,176,9.0,9.0,100,0.00,,,0.00,Wunderground v.1.13,2013-02-18 02:47:00,
2013-02-17 21:52:00,14.8,14.8,29.57,ESE,123,9.0,9.0,100,0.00,,,0.00,Wunderground v.1.13,2013-02-18 02:52:00,
2013-02-17 21:57:00,14.8,14.8,29.57,East,85,7.0,7.0,100,0.00,,,0.00,Wunderground v.1.13,2013-02-18 02:57:00,
2013-02-17 22:02:00,14.8,14.8,29.57,SE,128,7.0,12.0,100,0.00,,,0.00,Wunderground v.1.13,2013-02-18 03:02:00,
2013-02-17 22:12:00,14.4,14.4,29.57,ESE,117,8.0,8.0,100,0.00,,,0.00,Wunderground v.1.13,2013-02-18 03:12:00,
2013-02-17 22:22:00,14.3,14.3,29.57,East,88,9.0,18.0,100,0.00,,,0.00,Wunderground v.1.13,2013-02-18 03:22:00,
2013-02-17 22:27:00,14.3,14.3,29.57,SE,131,10.0,10.0,100,0.00,,,0.00,Wunderground v.1.13,2013-02-18 03:27:00,
2013-02-17 22:32:00,14.1,14.1,29.57,East,95,10.0,10.0,100,0.00,,,0.00,Wunderground v.1.13,2013-02-18 03:32:00,
2013-02-17 22:37:00,14.1,14.1,29.57,East,97,10.0,16.0,100,0.00,,,0.00,Wunderground v.1.13,2013-02-18 03:37:00,
2013-02-17 22:42:00,14.1,14.1,29.57,East,100,13.0,13.0,100,0.00,,,0.00,Wunderground v.1.13,2013-02-18 03:42:00,
2013-02-17 22:52:00,14.1,14.1,29.59,East,97,10.0,10.0,100,0.00,,,0.00,Wunderground v.1.13,2013-02-18 03:52:00,
2013-02-17 22:57:00,14.0,14.0,29.59,East,97,10.0,10.0,100,0.00,,,0.00,Wunderground v.1.13,2013-02-18 03:57:00,
2013-02-17 23:03:00,14.0,14.0,29.59,ESE,116,11.0,11.0,100,0.00,,,0.00,Wunderground v.1.13,2013-02-18 04:03:00,
2013-02-17 23:07:00,14.0,14.0,29.60,NE,54,9.0,12.0,100,0.00,,,0.00,Wunderground v.1.13,2013-02-18 04:07:00,
2013-02-17 23:12:00,14.0,14.0,29.60,ENE,75,9.0,18.0,100,0.00,,,0.00,Wunderground v.1.13,2013-02-18 04:12:00,
2013-02-17 23:17:00,14.0,14.0,29.60,South,171,10.0,10.0,100,0.00,,,0.00,Wunderground v.1.13,2013-02-18 04:17:00,
2013-02-17 23:22:00,14.0,14.0,29.60,SSE,155,8.0,18.0,100,0.00,,,0.00,Wunderground v.1.13,2013-02-18 04:22:00,
2013-02-17 23:27:00,14.0,14.0,29.60,East,90,7.0,9.0,100,0.00,,,0.00,Wunderground v.1.13,2013-02-18 04:27:00,
2013-02-17 23:32:00,14.0,14.0,29.60,East,93,10.0,10.0,100,0.00,,,0.00,Wunderground v.1.13,2013-02-18 04:32:00,
2013-02-17 23:37:00,14.0,14.0,29.61,SSE,161,9.0,11.0,100,0.00,,,0.00,Wunderground v.1.13,2013-02-18 04:37:00,
2013-02-17 23:42:00,14.0,14.0,29.61,SE,137,8.0,13.0,100,0.00,,,0.00,Wunderground v.1.13,2013-02-18 04:42:00,
2013-02-17 23:47:00,13.8,13.8,29.61,East,92,11.0,11.0,100,0.00,,,0.00,Wunderground v.1.13,2013-02-18 04:47:00,
2013-02-17 23:57:00,13.8,13.8,29.61,East,100,7.0,7.0,100,0.00,,,0.00,Wunderground v.1.13,2013-02-18 04:57:00,